Weather Roundup
Issued by NWS Chicago, IL

Home | Current Version | Previous Version | Text Only | Print | Product List | Glossary On
Versions: 1 2 3 4 5 6 7 8 9 10 11 12 13 14 15 16 17 18 19 20 21 22 23 24 25 26 27 28 29 30 31 32 33 34 35 36 37 38 39 40 41 42 43 44 45 46 47 48 49 50
000
NZUS59 KLOT 290208
HRRLOT

CHICAGO AREA WEATHER ROUNDUP
NATIONAL WEATHER SERVICE CHICAGO/ROMEOVILLE IL
900 PM CDT FRI APR 28 2017

NOTE: "FAIR" INDICATES FEW OR NO CLOUDS BELOW 12,000 FEET WITH NO
SIGNIFICANT WEATHER AND/OR OBSTRUCTIONS TO VISIBILITY.

* THESE STATIONS ARE NOT UNDER NWS QUALITY CONTROL. THEY ALSO MAY NOT
  REPORT WEATHER SUCH AS PRECIPITATION OR FOG.

ILZ005-006-012>014-019>023-290300-
NORTHEAST ILLINOIS

CITY           SKY/WX    TMP DP  RH WIND       PRES   REMARKS
OHARE          CLOUDY    50  42  74 NE9       29.94R
MIDWAY         CLOUDY    52  44  74 NE6       29.93R
AURORA         CLOUDY    57  49  74 NE6       29.92R
LANSING*       MOCLDY    49  47  90 N6        29.93R
JOLIET*        CLOUDY    58  54  85 CALM      29.92R
WAUKEGAN       CLOUDY    47  40  76 N5        29.95R
DUPAGE AIRPORT CLOUDY    54  46  74 NE8       29.93R
WHEELING       CLOUDY    48  42  80 NE7       29.96R
KANKAKEE*      CLOUDY    55  51  86 CALM      29.91R
MORRIS*        CLOUDY    58  52  80 CALM      29.91R
LEWIS AIRPORT* CLOUDY    54  49  83 NE8       29.92R
NORTHERLY ISL    N/A     47  42  83 MISG        N/A
$$

WIZ051-052-058>065-066-070>072-290300-
SOUTHEAST WISCONSIN

CITY           SKY/WX    TMP DP  RH WIND       PRES   REMARKS
MILWAUKEE      CLOUDY    46  40  79 N8        29.97R
KENOSHA*       CLOUDY    47  40  76 N8        29.96R
RACINE*        CLOUDY    44  38  79 N9        29.98R
WAUKESHA       CLOUDY    45  43  93 N7        29.98R FOG
WEST BEND      DRIZZLE   43  43 100 NE3       30.00R
$$

INZ001>003-010>013-019-020-290300-
NORTHWEST INDIANA

CITY           SKY/WX    TMP DP  RH WIND       PRES   REMARKS
GARY*          PTCLDY    48  45  87 CALM      29.94R
MICHIGAN CITY* NOT AVBL
RENSSELAER*    NOT AVBL
VALPARAISO     CLOUDY    56  51  84 CALM      29.93R
$$

LMZ740>746-290300-
SOUTHERN LAKE MICHIGAN

STATION/POSITION TIME  SKY/WX   TEMP WIND        PRES    VSBY
                                AIR  DIR/SP/G
                 (UTC)          (F)  (DEG/KT/KT) (MB)    (MI)
HARRISON CRIB    0130            47   20/  7/  8   N/A
BURNHAM HARBOR   0200            47   10/  6/  9   N/A
CALUMET HARBOR   0130            47  340/  8/ 10 1012.9R
BURNS HARBOR     0118            49   CALM  /  8 1013.5R
MICHIGAN CITY    0140            48   30/  6/  7   N/A
$$

ABBREVIATIONS USED IN REMARKS
   TC - TEMPERATURE IN CELSIUS
  WCI - WIND CHILL INDEX
   HX - HEAT INDEX
  VSB - VISIBILITY
$$



USA.gov is the U.S. government's official web portal to all federal, state and local government web resources and services.